Weather History for Russellville, AR

Change the Weather History Date:

Saturday, September 7, 2013

  Actual Average (KHOT) Record (KHOT)
Temperature  
Mean Temperature 82 °F -  
Max Temperature 99 °F 90 °F 105 °F (1990)
Min Temperature 66 °F 64 °F 37 °F (1996)
Cooling Degree Days 18    
Growing Degree Days 32 (Base 50)    
Moisture  
Dew Point 63 °F    
Average Humidity 59    
Maximum Humidity 90    
Minimum Humidity 24    
Precipitation  
Precipitation 0.00 in - - ()
Sea Level Pressure  
Sea Level Pressure 29.98 in    
Wind  
Wind Speed 1 mph (SSE)    
Max Wind Speed 5 mph    
Max Gust Speed -    
Visibility 10 miles    
Events      
Averages and records for this station are not official NWS values.
T = Trace of Precipitation, MM = Missing Value Source: NWS Daily Summary

Daily Weather History Graph

Daily Weather History Graph

Search for Another Location

Airport:

Trip Planner

Search our weather history database for the weather conditions in past years. The results will help you decide how hot, cold, wet, or windy it might be!

Date:

Astronomy

Sep. 07, 2013 Rise Set
Actual Time 6:49 AM CDT 7:30 PM CDT
Civil Twilight 6:23 AM CDT 7:56 PM CDT
Nautical Twilight 5:53 AM CDT 8:26 PM CDT
Astronomical Twilight 5:22 AM CDT 8:57 PM CDT
Moon 8:57 AM CDT (9/7) 8:37 PM CDT (9/7)
Length of Visible Light 13h 32m
Length of Day
12h 41m
Waxing Crescent, 5% of the Moon is Illuminated
Sep 7
Waxing Crescent
Sep 12
First Quarter
Sep 19
Full
Sep 26
Last Quarter
Oct 4
New

Hourly Weather History & Observations

Time (CDT) Temp. Heat Index Dew Point Humidity Pressure Visibility Wind Dir Wind Speed Gust Speed Precip Events Conditions
12:53 AM 73.9 °F - 66.0 °F 76% 30.02 in 10.0 mi Calm Calm - N/A   Clear
1:53 AM 73.0 °F - 66.0 °F 79% 30.02 in 10.0 mi Calm Calm - N/A   Clear
2:53 AM 71.1 °F - 66.0 °F 84% 30.01 in 10.0 mi Calm Calm - N/A   Clear
3:53 AM 70.0 °F - 66.0 °F 87% 30.01 in 10.0 mi Calm Calm - N/A   Clear
4:53 AM 68.0 °F - 64.9 °F 90% 30.01 in 9.0 mi Calm Calm - N/A   Clear
5:53 AM 68.0 °F - 64.0 °F 87% 30.02 in 8.0 mi Calm Calm - N/A   Clear
6:53 AM 66.9 °F - 64.0 °F 90% 30.03 in 7.0 mi Calm Calm - N/A   Clear
7:53 AM 70.0 °F - 66.0 °F 87% 30.04 in 7.0 mi Calm Calm - N/A   Clear
8:53 AM 78.1 °F - 66.0 °F 66% 30.03 in 10.0 mi ESE 3.5 mph - N/A   Clear
9:53 AM 82.0 °F 83.8 °F 64.9 °F 56% 30.04 in 10.0 mi Calm Calm - N/A   Clear
10:53 AM 87.1 °F 89.2 °F 66.0 °F 49% 30.04 in 10.0 mi Calm Calm - N/A   Clear
11:53 AM 90.0 °F 92.4 °F 66.0 °F 45% 30.03 in 10.0 mi Calm Calm - N/A   Clear
12:53 PM 95.0 °F 94.8 °F 60.1 °F 31% 30.01 in 10.0 mi SW 4.6 mph - N/A   Clear
1:53 PM 97.0 °F 96.5 °F 59.0 °F 28% 29.99 in 10.0 mi Calm Calm - N/A   Clear
2:53 PM 98.1 °F 98.1 °F 60.1 °F 28% 29.95 in 10.0 mi Variable 3.5 mph - N/A   Clear
3:53 PM 98.1 °F 96.4 °F 55.9 °F 24% 29.93 in 10.0 mi Calm Calm - N/A   Clear
4:53 PM 99.0 °F 98.1 °F 57.9 °F 25% 29.91 in 10.0 mi Variable 4.6 mph - N/A   Partly Cloudy
5:53 PM 97.0 °F 96.5 °F 59.0 °F 28% 29.91 in 10.0 mi Variable 3.5 mph - N/A   Clear
6:53 PM 93.0 °F 94.2 °F 63.0 °F 37% 29.91 in 10.0 mi Calm Calm - N/A   Clear
7:53 PM 86.0 °F 87.3 °F 64.0 °F 48% 29.92 in 10.0 mi Calm Calm - N/A   Clear
8:53 PM 81.0 °F 82.5 °F 64.0 °F 56% 29.94 in 10.0 mi Calm Calm - N/A   Clear
9:53 PM 78.1 °F - 64.9 °F 64% 29.94 in 10.0 mi Calm Calm - N/A   Clear
10:53 PM 75.9 °F - 64.9 °F 69% 29.94 in 10.0 mi Calm Calm - N/A   Clear
11:53 PM 75.0 °F - 64.9 °F 71% 29.95 in 10.0 mi Calm Calm - N/A   Clear